Theta_e
346 346 347 345 344 346 343 343 342 341 341 339 340 340 341 341 344 344 343 343 343 342 340 341 341 342 340 340 342 341 341 340 341 339 339 338 340 338 335 335 334 333 333 332 334 335 335 335 334 332 330 330 330 330 331 331 329 327 329 332 332 332 331 331 331 331 331 331 331 331 331 331 331 331 330 330 330 331 331 331 331 331 331 331 331
346 346 345 345 345 344 344 343 341 341 342 341 338 340 340 340 343 343 341 342 342 342 341 341 339 340 340 341 341 341 341 340 339 340 339 340 341 339 337 336 334 334 335 334 336 336 335 333 330 331 331 331 330 329 330 331 330 328 328 330 330 330 329 329 329 329 329 329 329 329 329 329 329 329 329 329 329 330 330 330 330 330 330 330 330
347 347 346 345 345 345 343 343 341 341 342 341 342 340 340 340 342 342 342 341 342 342 340 340 339 339 340 339 340 343 340 341 340 340 338 339 341 339 336 336 336 338 336 337 335 334 332 332 332 333 332 332 331 329 329 329 329 327 327 328 328 328 327 327 327 327 328 328 328 329 328 328 328 328 328 328 329 330 329 328 328 328 329 329 329
349 349 347 345 345 345 345 343 341 341 342 342 341 340 340 339 343 344 345 345 343 344 344 340 340 340 340 338 341 340 338 339 339 340 340 339 338 338 338 337 337 338 337 338 334 331 332 334 334 333 332 331 329 330 329 328 328 328 328 329 328 328 327 327 328 328 328 328 328 327 328 327 327 327 327 327 328 328 328 327 327 327 327 327 328
345 347 345 345 344 344 343 345 344 343 343 343 342 340 339 340 342 343 343 343 343 342 342 343 341 341 340 340 340 339 340 339 339 339 339 339 338 338 339 338 337 337 338 336 339 335 333 333 334 334 332 331 330 330 329 329 329 328 327 327 326 327 327 327 327 327 327 326 326 326 326 327 327 327 327 326 326 327 327 327 327 327 327 327 328
343 342 345 346 345 342 341 343 345 348 345 344 340 338 337 338 338 341 340 340 340 342 341 340 339 339 340 341 340 342 341 341 340 340 338 338 339 340 340 340 338 338 336 336 336 336 335 334 334 332 332 332 331 330 330 330 329 328 326 326 327 326 326 326 326 326 325 326 326 326 327 327 326 326 326 327 328 328 329 329 329 328 328 328 328
341 341 342 345 343 342 340 342 345 348 346 344 340 338 338 338 337 339 340 340 340 340 340 340 338 338 340 341 339 340 341 340 341 341 339 339 339 341 340 339 338 337 336 336 337 336 335 334 332 331 331 331 331 330 330 329 328 328 327 327 326 326 326 326 326 326 325 325 325 325 325 326 326 326 326 327 328 329 329 329 329 329 328 329 328
343 343 340 341 341 340 341 341 340 345 346 345 342 337 338 339 340 339 337 337 338 339 341 339 339 339 338 339 340 339 339 339 339 340 340 339 339 341 340 338 339 337 335 337 337 335 336 334 333 332 331 330 329 330 330 329 329 327 326 325 325 326 327 325 324 325 325 324 326 326 326 326 326 327 327 328 328 328 329 329 329 329 329 328 329
343 342 341 342 340 337 340 340 339 337 343 344 343 339 339 339 339 340 340 336 336 338 339 340 338 338 338 338 339 340 339 338 340 341 341 340 339 338 338 338 338 333 337 336 338 336 335 333 334 333 331 330 329 329 330 328 328 328 326 326 326 325 325 326 327 326 326 327 327 327 327 326 327 328 328 328 327 328 328 328 328 328 329 329 329
342 342 341 341 338 336 336 337 339 338 339 342 343 341 341 342 341 341 339 340 336 337 338 339 338 337 337 336 338 339 339 341 340 338 339 340 339 337 337 338 337 336 337 339 338 338 337 335 335 335 333 332 329 328 328 329 329 329 327 327 326 327 327 328 327 326 327 327 326 326 327 327 328 329 329 328 328 328 328 328 328 329 329 329 330
341 341 340 340 338 336 336 336 337 337 337 336 335 340 341 341 341 340 341 342 338 340 340 338 338 336 338 337 338 340 340 340 340 339 339 339 338 337 338 338 338 337 337 339 339 339 338 338 336 337 336 336 333 331 329 328 330 328 327 328 329 328 327 328 326 326 326 326 327 327 327 328 328 328 328 329 329 328 329 329 329 330 330 330 330
341 341 339 338 337 336 335 335 335 335 336 334 335 339 339 340 340 341 340 340 341 340 342 339 338 337 336 337 338 338 339 339 340 340 339 338 337 338 337 337 338 336 337 339 340 341 339 339 339 338 336 335 336 334 331 329 331 330 329 329 329 329 326 327 326 326 325 327 328 328 328 328 329 328 329 329 329 329 330 330 331 331 331 330 330
341 341 339 338 336 336 336 335 336 335 335 334 335 337 340 340 340 341 339 339 339 342 341 340 337 335 336 335 335 337 338 340 340 340 338 338 338 338 339 338 339 337 338 340 338 339 340 339 339 339 338 337 335 335 333 332 332 330 330 330 330 329 329 328 326 326 326 327 329 329 329 329 329 329 329 330 330 331 330 331 331 330 330 330 329
341 339 339 338 336 335 334 336 336 335 335 336 334 335 337 339 340 337 340 338 338 340 341 338 335 331 328 327 331 333 335 336 337 339 340 339 338 338 339 339 337 338 339 338 338 337 338 338 338 338 336 338 339 336 335 333 333 330 328 328 330 330 329 328 327 326 326 327 328 330 329 329 329 329 329 330 330 330 330 331 330 330 329 328 328
341 339 338 337 338 337 335 336 335 336 334 335 337 336 338 338 338 337 336 338 336 340 341 339 332 331 330 326 320 322 328 331 334 336 339 337 335 335 336 336 337 338 339 339 337 338 338 337 336 338 339 337 334 337 338 335 333 335 332 329 329 330 329 329 328 328 326 327 328 329 329 329 329 329 329 329 329 330 330 330 330 329 327 327 327
342 341 339 339 338 338 337 336 336 337 337 336 336 336 339 339 339 336 335 331 333 335 339 340 334 331 324 326 326 325 321 324 328 332 337 336 334 335 336 335 338 337 338 336 335 336 336 337 337 337 337 339 338 338 337 339 334 333 332 334 333 326 329 329 328 328 326 328 328 328 329 329 329 329 329 329 329 330 330 329 327 326 326 326 326
341 340 339 339 339 338 337 337 337 336 337 337 336 337 337 339 339 336 332 329 330 332 334 337 339 336 328 325 320 320 320 326 328 328 331 332 335 338 334 334 335 336 336 335 336 336 337 337 337 338 337 337 338 338 338 336 333 334 335 333 334 330 328 329 330 330 328 328 329 329 329 328 328 328 328 328 329 329 329 327 326 325 325 325 325
341 340 339 339 338 338 338 337 336 337 336 337 338 339 337 339 340 340 336 338 335 332 331 335 337 339 338 333 330 323 323 327 325 317 332 335 334 333 334 336 336 335 335 335 334 335 336 336 337 336 337 337 337 339 338 337 337 338 338 333 331 332 327 330 329 330 331 330 330 329 329 328 328 329 331 330 329 330 329 327 326 325 325 325 325
340 339 339 338 338 338 337 337 337 337 337 337 336 336 337 337 337 339 337 337 337 331 331 332 333 333 334 337 338 334 332 327 322 325 323 329 331 333 333 334 335 334 334 334 334 334 335 335 335 335 336 337 336 337 337 337 334 333 331 331 329 328 325 323 330 331 332 330 330 330 330 329 328 330 330 331 331 330 329 327 326 325 324 324 324
341 340 339 339 339 338 337 336 338 337 336 335 337 338 337 336 338 338 339 337 335 333 332 332 330 328 336 336 335 335 334 335 333 326 325 324 324 331 333 334 334 334 335 335 335 334 335 335 334 335 335 336 335 335 339 336 337 337 335 329 329 329 324 325 322 323 330 330 331 331 330 330 330 330 330 330 330 330 329 327 325 324 323 323 323
340 340 340 339 338 338 337 337 336 336 336 335 337 336 334 333 334 336 337 336 337 336 334 330 333 334 333 334 333 332 333 336 335 333 326 321 323 325 326 332 334 334 335 335 334 334 334 334 334 334 336 335 335 336 335 337 338 336 334 325 329 327 325 322 319 321 321 330 332 331 330 330 331 331 330 330 330 330 328 326 325 324 323 323 323
340 340 338 338 338 338 338 338 336 335 334 336 334 334 334 333 334 335 336 334 335 336 332 337 335 334 332 333 331 330 331 332 333 331 330 328 323 323 327 328 325 328 332 332 334 335 334 335 334 334 334 335 335 336 335 336 339 334 330 325 328 328 326 320 313 314 315 325 330 329 330 330 332 332 331 330 330 328 327 326 325 324 324 323 322
340 340 338 338 337 339 340 338 334 334 334 334 334 334 336 335 334 334 334 333 333 333 334 338 338 333 329 329 331 332 329 329 329 330 330 327 325 325 327 327 326 326 329 332 334 335 335 335 334 334 334 335 334 334 335 335 332 329 323 325 325 328 325 319 314 312 313 326 330 330 330 331 331 331 331 329 328 328 326 325 325 324 323 322 322
339 337 337 338 338 339 338 337 335 334 334 335 335 337 337 336 335 335 334 334 333 333 333 334 334 332 332 335 333 335 335 333 330 330 328 328 327 326 326 327 326 326 329 333 334 334 333 333 334 335 335 335 336 336 335 335 333 322 328 324 326 324 324 321 317 317 314 324 328 330 331 331 331 331 331 329 328 328 327 327 325 324 323 322 322
337 336 338 338 338 337 336 334 334 333 333 333 334 335 334 335 335 333 334 334 335 334 333 335 335 332 332 334 335 334 335 334 330 330 331 332 330 325 326 327 324 324 327 330 329 332 333 333 333 334 334 335 334 335 336 336 336 325 324 324 322 320 322 325 321 317 314 316 322 327 330 330 332 332 330 328 328 327 327 326 323 320 320 322 320
336 336 337 337 336 336 335 335 334 334 334 333 334 334 333 334 334 334 334 335 336 337 337 337 337 332 337 337 332 333 332 331 332 332 333 332 328 327 327 327 327 323 325 326 328 326 329 333 333 333 334 335 335 335 335 333 336 322 320 329 323 319 318 320 323 321 316 314 314 316 319 324 327 326 327 327 327 322 320 318 316 315 314 316 320
336 337 336 336 337 335 334 334 335 334 335 335 334 334 334 336 335 335 336 335 335 335 334 332 330 333 331 333 334 333 332 333 333 333 333 333 331 331 328 325 324 325 323 325 326 326 326 329 332 332 332 333 333 333 333 334 329 320 320 333 334 316 316 317 322 321 318 314 311 311 314 318 320 319 319 319 316 318 321 319 316 314 312 314 318
337 337 336 336 334 332 334 333 335 334 334 333 333 333 335 335 335 334 335 334 333 332 332 333 331 331 333 334 333 333 335 335 333 333 332 334 334 333 331 328 323 320 323 322 324 325 328 326 330 333 331 331 332 332 331 328 331 320 324 334 333 325 314 314 316 318 317 315 313 311 314 316 316 314 315 317 319 320 320 319 317 314 313 315 321
336 336 335 335 334 333 333 333 334 335 334 334 335 333 335 335 333 334 334 335 334 332 333 332 334 332 333 338 333 333 335 337 334 334 335 335 334 334 332 328 326 322 320 320 323 322 325 329 325 328 331 331 331 332 330 332 326 327 332 333 332 334 318 314 313 317 316 311 311 312 312 313 314 314 316 320 321 322 320 317 316 314 315 320 322
336 335 334 333 333 334 335 336 334 334 335 337 335 335 336 334 335 336 335 335 333 332 334 336 337 336 336 335 334 337 337 335 339 336 336 337 335 334 333 331 330 325 323 320 321 325 326 330 329 326 330 331 331 330 330 330 317 326 330 331 332 334 313 313 312 313 313 310 308 308 310 311 313 315 318 321 321 319 316 316 315 314 319 322 321
335 333 333 332 333 335 336 336 334 332 335 337 336 335 335 335 333 332 333 333 331 330 334 336 336 335 332 336 335 334 335 333 336 337 339 338 337 335 333 333 332 332 325 322 319 325 330 327 328 330 330 331 330 330 328 329 325 325 331 331 331 316 315 316 310 311 311 310 308 309 315 314 312 314 318 320 320 318 316 317 318 318 321 321 316
334 333 333 332 332 333 334 335 334 333 332 334 333 333 336 336 337 336 337 337 333 331 332 334 334 332 332 334 333 334 336 337 336 337 337 338 338 335 334 333 332 333 330 326 323 321 331 329 329 330 330 331 330 327 329 327 325 317 329 328 330 317 328 328 310 309 310 310 309 313 319 318 316 317 319 319 320 320 319 319 318 320 320 316 313
334 333 333 333 333 333 333 332 332 333 332 333 334 334 331 334 336 337 336 336 333 333 331 333 333 334 332 330 331 334 337 335 335 336 335 336 337 335 334 332 331 334 332 329 325 325 330 334 331 329 330 330 327 329 326 327 327 328 324 329 330 330 327 328 329 308 308 309 308 309 312 312 314 321 318 313 317 317 314 313 313 312 316 315 310
335 334 334 334 333 331 331 332 336 334 333 333 336 335 335 336 337 336 336 335 333 332 335 333 335 333 333 332 332 334 336 334 336 333 333 334 334 333 332 331 330 332 334 327 327 327 325 329 328 329 328 330 325 328 328 328 327 327 326 327 327 328 327 327 328 327 306 310 308 309 310 310 310 313 312 309 310 311 310 310 311 310 312 309 306
335 336 336 333 331 331 331 333 334 334 335 335 336 336 335 337 335 335 333 333 332 333 335 335 334 334 334 333 333 335 336 335 336 334 333 333 332 330 331 332 329 331 331 330 327 322 321 323 327 324 326 327 327 325 327 328 328 327 325 325 325 325 325 327 326 327 305 307 307 309 309 308 309 309 310 309 308 308 308 308 308 308 307 307 303
335 334 332 332 333 332 330 329 330 330 334 336 335 333 336 336 336 335 333 331 331 334 335 335 335 335 335 334 334 336 336 335 335 333 334 333 333 330 330 333 331 332 333 334 330 327 323 322 324 323 325 326 326 326 325 326 326 325 324 325 325 323 323 323 325 326 312 304 305 307 308 308 308 308 308 308 308 307 307 307 307 307 305 306 304
334 333 333 334 334 333 332 331 330 331 333 331 331 334 332 334 332 330 329 329 331 332 334 336 335 336 335 335 334 335 335 334 336 334 333 335 333 331 331 331 331 332 334 333 332 328 325 323 324 325 327 328 326 325 325 323 323 323 323 323 323 322 322 323 321 323 309 304 305 305 306 306 306 306 307 307 306 306 306 306 306 305 305 305 304
332 333 332 333 333 334 333 331 329 330 329 332 333 332 334 333 332 331 330 331 331 331 334 334 334 336 337 335 335 335 335 335 336 334 334 334 331 331 329 330 331 332 333 333 333 330 327 324 326 325 327 326 325 325 325 325 323 320 319 321 322 322 322 321 319 320 322 320 320 314 305 305 304 304 305 305 305 304 304 304 304 304 304 304 304
333 333 333 332 332 333 333 332 330 331 330 331 334 334 333 331 331 330 331 332 332 331 331 334 335 337 337 336 336 336 335 335 334 334 335 334 333 331 332 332 331 332 333 332 330 330 329 326 326 328 327 329 329 326 325 326 325 323 320 319 319 319 321 321 319 320 321 321 316 311 314 313 310 311 306 304 305 304 304 303 303 303 303 302 302
333 333 333 333 333 333 332 330 331 331 331 332 334 333 332 330 329 330 331 331 330 331 332 333 336 337 337 336 335 335 334 333 333 331 334 335 334 334 334 334 333 332 332 331 330 328 328 327 326 325 326 327 327 330 328 326 324 322 322 322 318 319 320 321 322 321 321 321 321 320 312 310 308 307 304 304 304 304 303 303 303 304 303 302 302
329 329 332 332 330 328 328 330 329 331 332 333 332 332 331 328 329 330 330 329 328 329 330 330 334 336 337 337 337 337 327 319 309 314 315 319 337 333 334 335 334 333 332 330 330 327 327 326 325 327 326 325 326 326 323 323 322 322 325 323 321 322 323 321 320 321 319 320 320 318 318 320 317 318 317 317 315 308 307 305 308 304 303 302 301
327 327 326 327 327 328 327 326 326 329 332 330 311 300 306 328 328 328 329 328 327 328 328 328 331 334 336 335 326 314 311 309 305 300 299 301 305 324 333 333 332 330 330 329 327 326 326 324 323 324 322 322 323 325 324 325 327 329 326 325 321 321 321 321 321 322 321 319 317 317 317 319 319 318 318 318 319 317 319 315 315 313 307 301 301
325 325 326 324 325 327 325 325 326 326 326 315 297 296 300 309 325 328 327 327 327 327 327 328 329 331 331 329 326 318 316 312 307 297 296 296 297 297 296 299 308 333 330 326 326 327 322 322 322 322 321 321 324 325 325 326 326 326 323 324 322 322 320 316 316 318 321 319 318 317 318 320 320 318 318 318 319 322 321 313 302 304 304 302 301
321 320 321 321 322 323 323 323 324 324 320 299 295 297 300 306 315 328 327 326 327 327 327 327 329 329 329 329 329 328 327 324 320 313 304 296 296 296 296 297 296 294 299 324 328 325 326 323 323 323 323 323 325 325 324 325 324 324 324 323 321 319 318 318 319 316 319 322 320 319 320 321 322 321 320 319 318 319 309 303 300 300 301 301 301
318 316 316 319 318 319 320 320 320 320 316 295 295 297 300 303 308 318 325 327 327 327 328 327 328 329 329 329 330 328 324 322 323 322 319 314 301 299 301 302 301 300 298 296 299 328 328 326 325 324 323 324 323 323 325 323 323 322 322 319 321 321 321 320 319 321 320 324 321 320 319 320 321 319 320 319 319 319 316 303 299 300 299 300 300
311 311 310 311 313 316 318 318 316 314 310 297 294 296 300 302 303 308 327 328 329 329 329 330 330 329 328 328 327 326 327 327 327 325 323 324 324 327 328 326 324 318 306 306 306 307 318 329 327 326 326 329 326 325 323 325 324 324 323 322 325 323 323 322 324 323 322 323 320 320 317 318 320 318 317 318 319 318 312 302 299 298 299 298 299
307 307 308 308 309 311 314 315 314 311 305 294 294 294 297 300 303 313 333 333 332 331 330 329 329 328 328 328 328 328 329 328 330 327 329 328 329 329 329 328 328 324 321 320 320 325 330 330 330 329 328 328 328 328 328 328 329 329 329 328 327 326 325 323 323 323 320 319 319 317 313 316 318 316 316 316 318 316 312 301 299 299 299 299 298
305 306 306 307 307 308 310 312 311 310 306 293 294 295 296 300 307 330 331 330 329 327 326 326 326 327 327 329 327 326 326 325 307 294 304 329 328 327 326 326 324 320 313 300 294 296 306 317 321 320 314 305 300 311 310 318 327 326 323 324 323 322 320 317 318 318 316 319 319 317 314 314 316 315 315 317 317 315 316 314 299 300 299 299 299
303 303 303 303 304 304 305 306 307 306 304 296 293 296 298 300 315 328 327 324 322 319 317 316 313 310 310 315 325 325 325 322 298 293 296 299 328 325 324 324 323 323 319 314 298 294 294 293 292 292 293 294 294 294 295 293 306 318 325 322 321 321 317 314 315 315 313 315 314 316 315 312 317 316 315 317 316 314 315 315 315 300 299 299 299
302 302 302 302 301 301 301 302 303 304 303 297 292 293 295 298 310 321 320 318 315 312 312 312 309 306 305 302 308 313 316 313 292 295 296 311 328 325 324 321 320 319 318 317 314 306 294 294 293 293 294 295 296 297 296 296 298 307 322 317 318 317 313 312 309 312 313 313 310 312 313 313 315 315 313 314 314 314 313 312 313 308 298 298 296
302 302 302 302 301 300 299 300 300 301 300 298 293 293 294 298 311 317 315 313 312 311 309 310 311 310 306 301 297 296 300 297 291 293 294 309 327 325 324 321 318 316 315 316 315 315 316 318 317 315 310 308 315 314 309 299 301 308 317 315 316 314 312 311 311 311 309 307 308 312 311 312 312 312 311 310 308 310 313 310 310 311 312 312 310
Wind_Speed
6 6 6 7 7 7 6 7 7 7 7 7 8 7 7 7 7 7 6 6 6 6 5 5 4 4 4 5 4 4 4 3 3 3 4 5 6 8 7 6 4 3 6 4 6 7 7 8 9 8 7 7 7 6 8 8 7 5 7 9 8 9 8 8 8 8 9 9 9 9 10 11 12 12 12 12 12 13 14 14 15 15 15 15 15
5 5 6 6 6 7 7 7 7 6 6 6 6 6 7 7 7 8 7 7 7 6 5 6 5 4 4 5 4 5 4 3 4 3 4 6 6 7 7 6 3 3 3 5 6 7 8 7 6 7 8 8 7 7 7 8 8 6 7 7 8 7 7 6 6 6 6 7 8 8 9 9 11 12 11 11 12 13 13 14 14 15 14 14 14
5 5 5 6 6 6 7 7 7 6 7 6 5 5 6 7 7 7 7 7 6 6 6 5 5 5 4 5 4 3 3 3 2 3 3 4 5 6 8 6 4 4 4 4 6 6 5 5 7 8 8 8 7 6 6 6 7 6 6 7 7 7 7 6 5 5 6 6 7 8 9 10 11 11 11 12 13 14 13 13 13 14 14 13 13
5 5 5 5 6 7 6 6 7 7 7 6 5 5 6 7 8 7 6 5 5 6 4 5 5 5 5 5 4 4 4 3 3 3 3 4 4 5 5 8 6 4 2 1 2 3 5 6 7 7 7 6 6 8 6 6 7 7 7 8 7 7 7 7 7 7 7 7 7 8 8 10 10 10 11 12 13 13 13 13 13 13 13 13 13
5 5 5 4 4 4 6 6 6 7 8 8 7 5 5 6 7 7 7 6 6 6 5 4 4 4 4 5 4 4 4 4 4 3 3 3 4 4 5 6 8 7 5 4 5 4 4 5 6 7 7 7 7 7 7 6 7 7 6 6 6 8 7 7 7 8 7 7 7 7 8 10 11 11 12 12 13 13 14 14 14 15 15 16 15
5 4 6 4 4 3 3 5 5 6 7 8 8 7 7 7 8 8 7 6 6 6 5 5 4 4 4 5 3 4 4 4 4 4 4 3 3 3 3 5 5 6 7 8 8 8 6 5 5 5 7 7 6 6 7 7 6 6 6 6 6 6 7 6 6 7 7 7 8 8 9 10 11 12 13 14 14 14 15 14 14 14 15 14 15
5 5 7 5 5 4 4 5 5 7 6 8 8 8 7 8 8 8 7 7 7 6 6 5 5 5 4 5 4 4 4 4 4 4 4 3 3 3 3 3 5 5 5 6 9 8 6 6 6 6 6 6 7 6 6 6 6 6 6 7 6 5 6 7 7 8 7 8 8 8 9 10 10 11 12 12 13 13 14 14 14 14 14 14 14
8 7 6 5 2 3 3 5 6 6 7 6 8 9 8 8 8 8 8 8 8 7 6 5 5 4 4 4 4 4 4 4 5 4 4 4 3 3 3 3 3 3 4 5 6 7 5 7 6 6 6 5 6 7 6 6 7 7 5 6 6 7 7 6 6 8 8 8 9 8 9 9 10 11 11 11 11 13 13 13 14 14 14 13 13
6 7 6 5 4 3 2 2 4 7 7 7 7 8 8 7 7 8 8 8 9 8 6 6 5 5 5 6 5 5 5 4 5 4 4 4 4 4 4 4 3 2 3 4 6 7 8 8 7 6 6 5 4 8 7 6 6 6 5 7 6 6 6 7 7 7 8 8 8 9 10 9 10 10 11 11 12 12 13 12 12 12 12 13 12
7 6 6 6 5 4 2 3 5 6 6 6 6 7 7 7 7 8 8 8 8 8 7 7 6 6 6 6 6 5 4 4 4 4 4 5 4 5 4 4 4 5 4 4 5 6 7 8 8 7 7 5 5 4 3 7 7 7 5 8 8 7 7 7 7 8 8 9 9 9 9 9 9 10 11 11 12 12 12 12 11 11 11 11 12
9 8 7 8 7 7 6 5 4 4 2 4 9 9 7 7 8 7 7 7 8 8 7 7 6 5 5 6 6 5 5 4 5 5 5 5 4 4 4 4 4 5 5 4 3 5 6 6 7 7 6 6 5 3 4 3 8 8 7 7 8 7 7 7 7 7 7 9 9 9 8 8 9 9 10 11 11 11 11 11 11 10 10 11 12
9 8 8 8 7 8 8 7 5 4 4 5 7 7 8 9 9 9 8 7 6 6 7 7 6 6 6 5 4 5 5 5 5 5 5 6 5 5 4 4 4 4 5 4 4 4 4 5 4 5 5 8 6 5 6 5 3 8 7 7 7 7 5 7 7 8 8 9 9 8 8 7 8 9 10 11 11 10 10 10 11 11 11 12 12
8 8 7 6 7 7 9 9 8 8 7 6 6 8 7 8 8 7 8 8 7 6 7 7 7 6 5 5 5 4 5 5 5 5 4 4 4 3 3 4 4 3 3 3 4 4 3 2 2 4 5 5 6 7 7 8 5 7 7 7 8 8 8 8 7 7 7 8 9 8 7 6 7 8 8 9 8 8 8 9 10 11 12 12 11
7 8 8 8 8 7 7 8 10 9 9 6 6 8 9 8 9 9 9 9 7 8 7 8 8 8 9 7 4 4 5 6 6 5 6 5 4 4 4 3 4 4 3 4 4 4 3 3 2 3 7 4 3 6 7 8 8 6 2 5 9 8 8 7 8 8 8 8 8 9 8 7 7 6 7 8 8 8 8 9 11 11 11 11 11
7 8 8 9 9 10 9 8 10 9 9 8 8 9 8 10 11 9 9 8 8 8 8 9 7 6 6 7 5 6 4 5 6 7 6 5 5 5 5 5 5 3 4 3 3 4 2 1 2 1 2 7 7 7 5 5 8 7 5 1 5 10 8 9 8 8 8 7 8 8 7 8 7 6 7 7 7 8 8 10 11 11 10 11 12
7 8 8 9 10 8 8 9 9 9 10 10 9 9 9 10 10 9 6 7 8 8 8 8 7 9 8 7 6 7 6 8 8 7 6 7 7 7 5 5 6 6 4 3 4 3 2 3 2 1 2 2 1 2 4 5 9 9 5 6 2 3 8 8 9 9 9 8 7 7 7 8 7 7 7 6 5 7 8 10 10 10 11 11 12
7 8 9 9 10 8 8 9 8 10 9 10 10 9 10 10 10 9 11 9 8 7 8 8 8 8 4 4 3 4 6 5 9 4 7 7 8 5 5 8 5 4 5 5 3 3 3 3 3 3 1 1 2 2 5 8 8 7 8 7 4 2 6 9 9 10 9 10 8 9 7 7 6 5 5 5 4 8 9 10 10 10 11 11 11
7 7 9 8 10 11 9 8 9 10 10 10 9 7 9 10 10 9 6 6 7 8 8 7 8 7 3 2 3 1 2 7 7 5 8 7 6 10 9 4 6 5 4 5 5 5 4 4 4 3 3 3 1 2 2 6 4 5 4 7 7 3 2 2 7 10 11 10 10 9 8 8 6 5 5 6 6 8 10 11 10 10 11 11 11
8 8 8 9 10 10 10 8 8 8 8 8 8 9 9 9 8 7 8 6 4 6 7 8 6 5 9 6 5 5 6 7 7 6 7 7 6 6 5 8 7 7 6 6 7 5 5 3 3 3 2 1 2 2 2 3 8 8 6 8 7 7 4 4 3 9 12 10 10 10 9 9 8 6 5 6 7 9 11 11 10 10 11 11 12
8 8 9 9 9 9 10 10 9 9 9 9 9 7 7 8 8 10 9 9 7 6 6 5 6 8 10 8 5 3 3 5 4 7 5 7 6 6 6 5 4 4 5 5 6 6 5 4 4 4 3 3 2 2 4 3 2 3 8 7 8 8 6 5 5 5 2 9 11 10 9 8 7 7 7 7 8 11 13 11 11 10 11 11 11
8 8 9 10 9 10 11 10 8 8 7 7 7 8 9 9 10 9 9 9 7 6 5 9 11 8 7 9 9 8 6 4 3 4 3 8 8 8 7 7 6 5 5 5 4 4 5 5 4 4 3 2 2 3 3 2 3 1 5 6 5 7 6 6 6 6 7 3 5 4 3 6 9 9 8 10 11 13 12 12 11 11 11 11 11
7 8 8 9 10 9 8 9 8 7 7 8 9 10 10 10 11 9 10 10 9 6 7 6 8 8 9 6 7 8 7 5 4 5 3 4 4 9 8 9 8 6 5 5 6 6 6 4 4 5 6 5 4 4 3 2 3 3 6 5 3 3 7 7 6 6 5 6 6 6 3 6 8 9 11 12 13 13 12 11 11 11 12 11 11
5 6 7 8 8 7 6 8 8 7 8 8 8 8 9 10 10 11 12 11 8 8 7 5 4 4 3 8 8 8 8 8 7 6 5 5 4 6 7 9 8 7 7 7 6 6 6 5 5 4 4 4 4 4 5 4 4 8 8 5 3 2 7 7 7 6 6 7 10 9 7 9 8 12 13 12 12 13 13 12 11 12 12 12 12
6 5 6 7 8 6 7 5 4 5 5 6 8 7 6 8 8 10 10 10 8 8 7 8 8 6 7 7 7 0 2 4 2 5 6 5 5 5 6 6 6 6 7 6 6 5 5 5 5 4 4 3 3 3 3 4 7 8 4 8 3 2 7 7 7 8 7 8 8 8 8 5 10 12 14 13 12 13 12 13 13 12 12 12 12
5 5 6 8 6 7 8 7 6 7 6 6 8 7 7 7 8 12 10 10 10 10 10 10 11 10 8 7 2 4 4 1 1 6 4 4 4 5 6 6 6 6 6 7 6 6 5 5 4 4 4 4 4 4 4 3 4 5 2 9 6 6 6 8 8 8 8 8 7 7 6 7 12 14 14 12 13 13 12 12 11 10 9 11 11
6 6 5 6 7 7 8 8 9 9 9 8 8 8 8 8 10 10 10 9 9 10 9 8 5 11 6 5 8 4 6 7 8 6 5 5 6 5 6 5 5 6 6 7 6 7 6 5 5 4 4 4 4 4 2 3 5 6 2 1 7 7 7 8 8 8 8 8 8 6 7 7 8 7 6 11 11 10 10 10 10 9 8 8 10
7 6 5 5 5 7 10 9 7 8 7 7 7 7 7 7 9 9 8 8 9 8 5 6 9 6 5 6 7 8 5 10 5 6 6 5 5 5 6 7 5 4 6 6 6 7 6 6 6 6 5 4 4 3 4 3 7 6 2 6 5 6 6 6 6 8 8 9 8 7 7 9 11 11 12 10 9 10 12 10 9 8 8 8 7
6 6 5 4 5 8 8 8 8 8 8 8 7 8 9 9 8 8 9 7 8 11 9 8 7 10 11 10 4 6 6 8 5 5 5 5 4 6 6 6 7 6 6 6 6 6 7 6 6 6 5 5 4 4 4 1 3 8 3 6 6 6 7 6 6 7 9 8 7 7 7 9 10 10 10 11 11 11 11 10 9 8 8 7 5
6 6 6 3 3 7 7 8 10 10 11 11 11 10 11 9 8 8 8 8 7 9 10 9 9 5 8 6 7 8 8 7 6 5 4 4 5 5 6 6 7 6 7 7 6 6 9 7 6 7 7 6 5 4 4 4 8 3 5 4 4 6 9 8 6 7 8 7 8 7 7 8 8 9 11 11 11 10 10 9 9 8 7 5 5
7 6 6 6 5 8 8 9 8 9 10 9 10 10 10 9 7 6 4 7 6 4 6 9 7 9 6 6 8 4 6 8 6 5 5 5 5 6 6 5 5 6 7 7 7 5 6 6 4 6 6 7 5 4 3 3 9 5 4 3 2 5 9 6 5 6 8 6 6 7 8 9 10 11 11 11 11 11 10 9 7 7 6 8 7
6 6 6 6 6 7 6 5 6 8 10 8 8 7 8 8 9 9 12 11 9 8 9 7 7 7 8 7 4 6 5 3 6 6 5 6 6 5 6 4 5 4 4 1 6 2 4 7 5 7 7 8 6 5 3 3 5 4 3 3 5 10 7 5 3 6 8 7 7 8 9 9 10 11 11 11 11 10 9 8 7 7 8 8 7
5 6 5 5 5 6 6 6 7 8 7 8 7 7 7 9 8 9 8 9 6 6 6 9 5 8 8 8 6 9 7 8 6 7 6 6 6 6 5 5 4 5 3 3 7 5 4 6 6 6 7 7 8 7 6 5 6 9 4 4 7 6 6 6 5 6 9 9 9 10 10 10 10 11 11 10 9 8 9 9 9 8 8 7 8
6 6 5 5 5 4 4 7 10 6 7 9 9 8 7 9 10 10 10 9 9 7 9 10 12 11 11 10 11 8 7 7 6 6 6 6 6 5 5 6 5 5 5 5 3 8 4 4 6 6 7 6 7 7 7 7 6 4 4 6 7 6 6 6 6 7 8 9 9 8 10 10 10 11 10 10 10 10 10 9 9 9 8 8 9
6 6 6 4 4 5 6 9 8 11 12 10 9 8 8 9 9 7 7 8 8 9 10 8 7 7 7 8 8 7 7 7 6 7 7 6 7 7 7 7 7 6 6 6 9 5 8 5 6 7 7 5 6 6 7 7 7 6 6 6 6 5 5 6 7 6 7 7 8 9 10 10 10 10 10 10 10 10 10 10 10 9 8 9 10
6 4 5 4 5 6 7 5 4 7 8 8 9 10 10 9 9 10 9 8 9 9 9 9 9 8 8 8 8 7 6 7 6 6 5 7 7 9 8 8 6 7 7 5 5 8 8 7 6 7 6 5 3 6 7 6 7 7 7 6 5 4 4 5 6 6 9 7 8 6 7 8 9 9 9 10 9 10 10 10 10 10 10 9 10
5 4 3 6 5 4 4 5 7 7 7 3 4 8 9 10 8 8 10 11 10 9 8 9 9 8 9 8 7 7 7 7 6 6 6 7 7 7 8 5 4 7 6 3 4 6 6 7 7 5 6 6 4 5 5 6 6 6 6 6 6 5 5 5 5 8 10 10 9 8 8 8 8 7 7 8 9 9 10 10 10 10 10 9 10
5 7 7 6 6 7 4 5 6 8 5 9 10 6 7 9 10 9 8 8 8 8 8 7 8 8 7 7 7 7 7 7 7 7 7 7 8 7 4 6 7 8 6 5 5 5 7 7 6 4 5 5 5 5 6 6 6 5 5 6 6 6 6 5 3 7 14 12 10 9 9 9 9 9 9 9 10 10 10 10 10 10 9 10 10
5 5 6 6 8 8 8 6 3 6 6 6 7 10 9 8 7 7 6 6 7 7 7 7 7 7 7 7 8 8 8 7 7 7 7 9 7 6 7 7 6 7 6 6 5 5 5 5 6 6 4 5 5 4 5 5 5 5 5 6 6 5 6 5 5 6 7 7 7 7 6 7 10 11 11 10 11 11 10 10 10 10 10 10 10
5 4 5 6 5 5 6 7 7 5 3 7 8 6 7 7 6 6 6 6 6 6 6 6 6 6 7 7 7 8 7 7 7 7 8 7 5 6 5 3 5 8 6 6 6 6 5 5 5 5 6 6 5 5 6 5 4 4 5 5 6 6 5 5 6 6 5 7 8 8 8 7 8 13 13 12 12 12 12 11 11 11 11 11 10
3 3 3 3 3 3 4 2 2 2 8 9 6 6 6 6 5 6 5 6 7 6 6 6 6 6 6 6 7 8 8 6 4 6 7 7 5 6 5 5 5 6 6 6 5 6 6 6 5 6 5 5 5 3 3 5 5 5 5 4 5 6 6 6 5 5 6 6 6 8 8 7 6 7 10 14 14 13 13 11 13 12 13 12 12
3 3 2 2 3 3 4 4 2 2 5 4 3 3 6 6 5 6 7 7 7 7 6 7 6 6 6 6 5 4 8 8 9 7 7 6 2 6 5 5 6 6 6 6 6 6 6 5 6 5 5 5 5 5 5 5 6 5 5 4 4 4 5 6 6 5 4 5 5 5 6 7 7 9 8 9 10 15 13 15 13 16 15 14 14
4 5 5 4 2 1 1 3 2 2 3 3 7 9 10 3 6 6 6 7 7 7 7 7 6 6 6 6 7 11 11 11 10 9 9 9 10 6 2 4 6 6 5 5 6 6 6 6 6 5 5 5 5 5 5 5 5 3 3 5 5 5 4 4 3 4 1 3 3 4 5 5 4 5 6 6 5 10 6 9 10 10 12 14 12
6 4 4 5 5 3 2 1 2 2 3 4 9 9 8 8 4 6 6 6 6 7 7 7 6 6 6 7 7 8 9 9 9 10 10 10 10 11 12 12 10 3 4 6 5 4 6 6 4 5 5 4 4 5 5 5 4 5 5 5 5 5 6 6 7 5 1 3 4 4 4 4 3 5 5 5 4 6 2 8 12 3 2 9 10
6 6 7 7 6 6 5 5 3 4 4 9 9 6 5 5 3 4 6 6 6 6 6 7 6 6 7 7 6 6 6 8 8 8 9 10 12 13 13 12 11 11 10 6 1 3 3 4 4 3 3 4 3 3 4 4 5 5 4 4 4 4 3 4 4 4 5 3 4 4 4 5 3 2 2 1 5 6 9 10 11 9 5 2 5
7 9 7 7 6 5 5 5 4 7 5 10 8 7 3 4 3 3 6 5 6 6 6 6 6 6 7 8 7 6 7 9 9 9 9 9 10 13 14 13 13 13 12 11 9 7 1 1 1 2 1 2 2 2 4 3 2 2 3 4 4 4 3 5 4 2 5 1 3 4 6 5 2 3 3 5 4 4 6 9 10 9 6 3 2
7 7 8 8 7 7 6 6 8 8 8 10 9 9 7 6 5 10 4 5 5 6 5 5 5 6 7 8 8 8 7 6 8 8 8 9 9 8 7 7 8 8 9 9 7 7 5 2 0 3 4 2 4 5 4 2 2 2 4 4 3 3 2 1 4 3 4 1 3 3 4 5 4 4 1 4 2 5 7 7 8 8 8 6 5
6 7 7 8 8 7 8 8 8 8 7 13 10 9 9 8 9 4 4 4 5 6 6 7 6 6 5 5 7 7 6 6 4 4 6 7 6 7 7 7 7 7 8 8 8 6 3 3 4 5 5 5 5 4 3 2 1 2 4 4 3 3 2 3 3 3 4 3 3 1 1 4 5 5 3 3 2 6 7 10 10 8 8 7 6
6 5 8 8 8 8 9 9 8 9 9 16 13 11 10 9 6 3 5 6 6 7 8 8 8 7 6 5 6 6 5 5 8 11 10 2 7 7 7 7 7 7 8 7 7 8 9 8 7 8 7 8 9 7 7 6 0 3 3 2 1 2 2 4 5 5 3 3 4 4 3 2 2 2 3 2 2 2 2 7 10 9 9 9 8
10 11 11 10 8 9 11 9 9 8 9 14 16 14 14 13 3 5 6 6 7 7 8 9 9 10 9 8 4 7 5 6 7 11 11 12 4 7 8 8 6 6 6 6 9 12 13 14 14 13 12 12 11 11 10 10 8 6 2 4 3 3 3 3 0 3 5 2 2 4 4 1 1 3 1 2 0 1 2 2 5 8 9 11 11
11 11 10 10 11 11 11 12 10 8 9 14 17 16 15 15 9 7 6 7 8 8 8 9 8 7 10 18 14 10 9 7 9 8 9 9 3 6 7 8 7 7 6 5 5 6 10 12 12 11 10 8 9 10 11 11 11 7 4 1 3 2 1 2 1 3 3 3 4 4 4 1 1 2 4 3 3 1 3 4 4 7 11 12 13
10 9 10 11 11 12 11 11 15 13 10 12 17 16 16 14 10 8 8 8 8 8 7 7 8 7 7 12 17 12 8 7 9 10 11 9 2 3 4 6 7 7 6 6 5 6 5 5 5 5 6 6 6 6 7 10 10 8 6 6 4 3 2 1 1 2 3 4 4 5 4 1 1 3 3 4 3 3 2 5 5 6 6 4 5
Wind_Direction
205 202 203 206 196 191 190 190 185 190 184 191 185 185 197 191 188 188 179 167 165 167 163 153 165 154 147 132 126 116 114 126 120 122 119 122 118 118 113 100 88 81 102 123 105 112 113 108 102 104 102 95 100 95 92 91 86 75 92 87 83 77 75 77 76 74 73 74 77 76 80 83 81 79 74 74 76 73 73 72 71 70 68 65 63
211 215 207 203 200 197 194 197 191 193 189 193 183 185 194 190 192 189 181 176 171 168 172 169 172 157 152 132 143 134 140 132 145 135 119 111 122 122 118 112 103 58 77 130 125 122 121 122 122 92 98 113 110 102 103 101 95 96 90 79 77 74 70 70 70 70 71 72 74 79 80 81 80 79 78 78 79 76 74 73 73 73 74 73 70
215 218 214 201 202 203 206 191 197 193 196 196 179 193 198 192 194 194 188 189 175 165 192 168 171 160 146 148 141 145 126 130 123 144 135 125 133 132 127 122 106 62 48 43 128 134 127 122 114 119 114 111 113 109 99 88 87 83 88 81 71 67 68 71 77 83 84 85 87 90 87 84 82 79 82 84 81 80 78 77 77 78 77 78 76
228 226 223 208 205 201 212 212 201 192 200 195 181 186 202 195 200 196 199 193 174 176 188 180 178 153 169 144 157 141 136 141 158 162 136 127 128 144 147 134 116 99 90 4 60 98 132 130 123 125 110 116 116 106 101 93 89 94 87 73 71 77 79 78 87 88 82 85 90 85 85 86 84 85 85 84 82 81 81 80 81 79 79 80 81
287 261 227 227 228 224 204 213 215 209 200 195 184 182 201 196 197 201 200 202 189 186 186 185 179 161 183 139 165 143 142 163 160 166 147 144 153 144 154 154 143 130 131 125 67 75 86 112 120 121 121 109 97 113 111 107 106 105 100 98 81 73 69 72 69 75 81 84 95 95 87 83 86 90 90 90 92 92 90 89 86 82 82 83 85
219 259 251 225 219 243 270 232 218 213 208 192 197 185 197 199 201 202 196 202 196 184 189 186 182 176 171 158 164 149 167 164 171 148 159 156 142 148 154 158 157 149 142 117 108 106 108 118 119 116 122 116 115 112 111 109 106 100 106 106 107 93 92 96 106 101 96 98 94 92 95 95 91 93 98 95 90 89 84 81 81 83 83 81 83
209 212 237 220 206 208 236 251 230 212 210 200 197 196 201 202 200 205 193 202 200 190 195 195 202 177 176 185 161 163 170 169 164 157 161 143 178 148 169 168 157 171 150 152 131 128 139 145 120 109 107 122 129 124 108 116 110 108 108 105 104 100 95 94 95 100 101 97 100 105 101 101 103 103 100 95 96 95 96 93 88 87 87 86 87
210 202 201 219 207 224 239 289 260 237 217 203 210 203 203 203 202 206 198 205 198 194 189 188 197 184 186 191 172 176 179 171 168 168 152 167 168 168 175 161 162 168 153 154 143 129 133 122 121 125 120 135 126 114 115 117 117 115 110 99 101 106 111 108 101 99 102 105 109 107 106 104 106 105 102 96 93 95 93 92 92 88 86 87 87
213 208 197 192 168 165 171 193 280 257 233 214 215 211 205 206 206 203 207 206 201 192 190 182 181 180 187 192 180 182 186 178 171 162 157 188 168 173 179 157 154 127 178 146 137 144 141 138 135 131 133 126 111 121 134 127 121 124 127 109 109 114 108 103 108 107 105 112 113 116 114 112 108 105 104 105 103 98 97 98 101 97 91 87 86
202 201 197 179 163 173 170 228 223 240 277 250 245 216 201 203 199 204 204 213 210 197 191 185 187 184 193 192 182 187 178 172 162 166 183 174 179 178 173 156 166 177 165 159 154 149 146 151 147 138 134 133 128 130 109 130 126 125 127 130 117 119 118 117 112 112 117 115 113 111 115 115 109 104 102 104 105 104 101 99 92 95 98 93 87
207 199 196 196 185 174 177 178 210 231 226 255 240 224 202 200 205 198 203 211 207 197 193 186 191 184 189 188 178 181 178 166 168 181 191 181 171 180 173 169 182 173 164 163 149 143 157 164 166 158 140 123 144 121 120 95 136 128 137 121 128 132 122 119 115 121 122 119 119 124 118 112 106 105 106 107 108 107 105 105 102 97 96 93 92
214 204 198 194 187 189 179 176 184 219 220 220 245 220 196 194 204 196 188 205 213 188 187 181 179 184 183 172 176 189 179 175 191 193 194 184 177 183 181 172 192 181 178 161 166 164 165 150 165 139 164 131 126 118 136 113 86 140 144 141 129 119 119 124 131 127 129 126 127 127 121 113 112 120 121 116 112 109 104 99 102 101 101 100 92
213 204 200 194 199 200 189 185 181 187 210 213 217 250 201 198 195 188 189 191 189 193 184 187 169 165 164 174 179 187 185 191 197 207 197 185 172 189 177 180 187 191 185 185 163 174 163 168 149 125 139 153 155 144 145 142 139 152 151 160 136 141 142 140 141 139 138 141 135 131 129 123 121 118 115 113 113 106 99 103 103 101 96 94 95
213 212 209 206 208 201 196 192 191 192 200 204 199 223 224 194 196 194 199 194 190 188 181 185 180 185 179 177 173 188 187 204 206 208 208 189 184 186 190 193 195 190 181 189 186 170 188 165 156 141 138 193 175 173 162 155 162 158 154 144 151 142 146 146 144 145 147 147 143 138 135 137 135 127 117 115 111 100 101 108 106 102 101 100 97
210 209 209 209 213 208 203 201 197 192 191 199 204 208 209 201 196 194 189 203 200 187 188 200 191 182 186 183 199 180 177 220 211 215 214 212 190 202 202 186 197 211 196 198 179 190 193 136 132 191 170 155 179 182 184 157 135 128 133 86 129 147 146 154 151 150 150 154 151 140 145 145 148 151 136 118 107 104 108 108 105 103 104 99 96
221 210 207 211 214 210 205 206 201 194 191 187 189 197 199 202 194 190 198 191 195 192 200 206 226 189 190 199 180 190 191 206 201 204 209 213 197 205 206 201 194 198 212 199 204 196 182 173 142 261 198 214 149 171 135 124 136 147 136 120 88 155 153 159 158 155 163 163 165 157 159 152 153 145 132 125 119 105 112 107 110 111 106 104 101
230 221 214 213 211 208 210 211 204 202 197 191 185 188 192 201 197 190 188 205 185 199 199 209 234 219 210 170 158 208 220 184 175 199 193 199 199 195 230 217 195 186 201 192 207 197 181 183 183 192 195 266 172 192 132 149 156 167 158 146 133 196 162 163 161 167 169 172 176 170 179 172 160 163 143 137 126 120 126 116 114 114 110 108 106
247 232 222 220 215 209 208 206 204 203 199 198 188 174 187 193 192 186 177 199 181 183 193 209 222 240 186 199 306 249 216 175 181 188 188 200 186 200 201 190 213 189 214 154 202 194 190 177 188 184 195 221 168 193 168 146 190 145 155 154 152 154 60 23 171 171 175 176 186 182 189 188 182 189 155 148 152 137 134 123 119 120 117 112 110
245 242 231 219 218 211 208 212 207 197 195 197 183 182 187 185 191 185 187 188 193 180 189 197 201 238 239 210 216 174 215 182 199 163 174 170 204 179 197 204 187 184 201 178 190 190 193 188 167 184 231 193 219 113 226 129 110 111 101 136 145 139 163 95 36 179 178 184 185 197 195 198 203 193 188 166 158 148 138 131 129 123 119 117 115
241 240 239 229 217 215 213 209 210 205 198 197 188 179 174 180 188 195 187 191 190 192 191 198 196 215 216 220 210 271 270 241 204 215 177 164 185 195 178 185 186 194 201 188 199 183 172 192 186 171 201 184 227 214 46 63 54 155 148 146 145 153 162 134 107 88 175 188 197 202 197 213 205 204 190 170 166 150 142 136 133 130 124 125 122
244 243 239 240 226 220 220 213 208 203 199 193 186 176 176 180 186 191 193 193 191 192 190 211 213 209 190 211 207 207 192 181 245 249 219 169 174 180 185 176 197 188 185 193 196 196 187 191 193 160 119 190 196 235 163 167 138 163 123 130 144 161 158 129 130 143 140 86 114 96 164 228 193 198 184 163 155 147 142 138 139 137 132 129 127
237 243 247 242 233 221 219 211 200 197 196 190 189 175 182 186 191 190 193 190 189 189 207 217 219 210 218 209 200 208 187 185 197 191 236 242 155 191 176 180 190 180 177 183 185 193 184 180 171 196 179 189 191 178 224 194 173 156 131 104 102 148 139 144 136 147 152 136 144 143 196 214 188 181 163 153 152 149 146 147 147 143 139 135 130
237 237 233 236 231 215 210 212 212 186 188 191 191 187 180 180 188 191 192 187 184 194 208 215 245 257 236 214 217 205 194 191 183 191 192 185 195 169 173 189 186 162 189 189 183 178 182 173 184 195 177 177 188 190 148 235 147 101 112 97 97 142 151 147 150 153 163 158 145 156 190 228 186 167 158 158 155 156 157 155 153 147 143 141 135
237 232 223 217 222 212 214 196 159 159 185 183 187 187 168 168 185 189 196 193 192 200 204 211 221 230 239 239 218 231 237 208 236 180 196 174 195 167 177 181 162 178 161 167 181 169 181 184 182 176 189 180 185 194 180 195 98 114 180 136 147 135 157 152 156 158 171 173 174 176 180 190 174 174 162 160 162 162 162 157 153 154 150 148 144
237 233 229 213 206 201 206 182 188 192 193 196 177 182 184 176 188 195 193 195 199 202 209 213 211 218 213 216 283 204 239 188 87 257 199 169 193 175 169 175 169 150 157 174 178 181 177 173 175 184 197 170 195 203 187 217 146 114 314 145 157 156 174 174 164 171 179 191 178 184 170 182 195 189 166 163 167 167 165 157 151 153 159 154 152
250 241 229 225 218 200 200 197 197 193 196 192 170 183 184 181 193 191 194 198 199 205 214 212 202 232 244 192 199 195 202 240 199 211 171 192 188 181 155 162 165 165 159 190 172 178 172 176 176 181 187 184 192 178 201 192 141 124 324 276 144 168 177 178 171 171 185 180 174 184 182 192 169 174 175 164 172 163 143 139 147 157 160 158 159
248 247 235 229 228 206 206 200 187 182 165 167 170 179 183 197 195 186 195 189 196 203 207 227 220 210 238 250 206 182 231 227 167 213 182 195 192 165 166 158 165 167 167 197 174 208 156 194 170 173 178 175 178 161 172 189 100 121 229 232 155 153 181 175 176 174 179 184 183 180 185 165 155 158 166 170 149 140 141 148 156 160 164 168 170
242 246 238 234 210 231 204 196 179 173 174 170 174 186 194 201 194 195 196 189 196 204 202 204 226 224 211 193 197 224 193 240 197 200 220 179 193 167 185 178 169 172 186 188 196 200 168 171 169 165 164 169 165 184 112 222 144 121 221 227 169 164 168 177 180 174 182 188 180 174 162 149 158 158 154 144 150 150 150 158 165 167 170 175 172
226 223 218 202 187 212 198 192 191 186 190 186 182 189 191 185 189 188 194 197 197 206 206 192 195 169 230 211 214 201 201 202 208 185 205 190 196 178 202 194 193 188 186 176 210 187 176 189 167 164 174 163 172 166 174 195 106 186 189 210 187 170 164 172 180 171 178 173 178 172 157 157 157 154 150 153 154 155 159 165 169 171 172 178 154
208 205 202 202 210 200 203 192 190 199 199 190 183 182 180 183 185 176 171 187 182 188 229 200 189 196 195 214 224 203 217 187 191 199 183 195 198 190 206 200 213 218 191 204 158 181 171 183 186 140 174 160 158 151 167 155 78 267 185 169 170 113 138 143 173 168 166 168 168 163 159 159 161 157 158 161 161 161 165 170 172 172 179 176 150
183 193 203 204 189 177 193 199 176 208 195 181 177 178 181 184 180 185 190 188 185 195 206 191 180 187 198 205 227 253 151 257 193 185 184 191 196 197 203 208 196 290 250 178 98 213 169 162 177 153 169 158 151 141 162 145 135 256 136 162 122 97 131 127 175 156 170 166 168 164 164 165 170 166 170 171 171 168 171 177 172 180 188 177 156
191 194 205 193 189 175 187 193 185 200 181 189 180 191 184 192 178 182 176 180 180 185 212 174 180 189 193 194 208 227 175 193 182 183 188 190 199 208 190 201 198 228 221 239 137 163 192 157 155 141 150 146 137 149 155 143 125 265 169 157 96 135 172 138 126 148 166 170 174 173 172 168 176 176 178 180 177 173 178 183 182 183 194 167 166
196 199 197 199 193 183 186 209 197 180 214 182 194 187 183 206 180 181 171 179 183 184 211 181 189 186 177 184 205 201 175 197 180 181 194 185 190 214 197 197 192 184 213 205 134 140 132 134 153 150 141 157 154 154 143 135 158 168 204 132 150 179 162 150 151 145 171 171 176 175 171 174 179 184 182 183 183 184 183 185 185 188 192 169 177
204 192 184 170 190 209 208 233 205 189 187 198 194 188 182 185 182 159 168 182 191 211 199 188 184 182 184 191 182 186 183 197 181 193 186 188 192 197 198 206 185 182 195 203 131 175 138 154 152 139 149 189 147 159 147 154 160 164 167 154 169 197 146 157 155 149 156 168 173 178 177 181 186 193 185 188 189 189 186 189 189 193 195 179 185
210 191 159 147 171 212 222 220 229 238 204 184 194 186 184 181 173 167 180 183 211 192 186 189 180 183 178 185 183 177 186 193 182 209 168 200 198 202 191 205 181 167 185 229 160 151 157 150 153 155 153 167 170 157 156 160 161 172 169 162 176 169 155 164 159 145 151 166 171 180 193 192 197 202 195 196 196 194 194 194 195 197 203 192 193
188 157 163 176 158 161 157 185 216 227 226 154 217 188 185 174 166 178 176 180 186 192 190 181 176 177 175 179 179 177 183 191 185 197 189 199 214 200 196 165 173 173 166 195 198 139 160 153 164 163 151 151 180 154 155 160 166 178 183 169 176 167 165 177 173 158 154 169 173 179 189 196 210 216 213 206 206 203 202 201 203 205 206 204 199
178 167 163 156 175 166 176 172 191 217 206 187 200 182 192 183 181 175 178 179 185 187 180 179 173 172 172 175 176 180 184 188 188 201 192 195 209 195 193 149 206 156 164 179 181 161 160 164 152 162 154 162 172 163 165 175 168 183 182 171 181 181 168 176 192 118 142 166 173 185 191 196 205 210 212 209 210 211 209 209 210 213 213 211 208
190 186 185 181 191 185 176 139 176 203 187 250 181 193 171 178 173 175 178 176 182 180 180 177 176 169 172 176 172 185 184 190 190 195 189 191 204 193 199 152 206 154 167 170 174 169 181 162 158 165 184 171 170 178 182 190 175 179 176 179 181 187 170 182 189 154 168 176 192 186 192 204 205 212 207 205 209 210 212 211 213 217 218 217 215
207 201 200 189 184 181 162 146 189 178 198 226 203 182 180 177 184 178 178 172 170 170 172 165 165 163 172 169 173 182 184 189 186 189 179 190 192 208 180 182 192 150 169 173 176 167 190 186 174 184 176 184 191 184 191 188 192 198 180 179 185 184 188 194 193 176 182 178 187 176 196 208 193 201 199 207 207 210 207 207 211 214 217 216 214
242 210 197 190 166 161 128 107 195 153 196 203 172 187 187 183 179 182 167 173 169 164 164 163 164 164 167 169 173 176 187 180 158 166 207 179 176 198 165 183 185 158 176 174 187 187 188 200 196 184 193 173 186 197 168 185 197 206 211 202 197 177 178 192 211 190 182 187 199 191 192 178 178 194 180 201 209 209 207 207 211 214 214 215 213
8 347 63 117 120 139 119 87 265 178 203 153 174 200 197 184 184 169 171 171 168 159 165 166 164 157 154 156 154 101 58 57 61 43 45 29 178 170 157 175 174 175 182 187 188 198 199 198 199 194 192 189 190 181 187 197 206 212 190 202 218 203 182 179 197 208 215 202 214 224 188 184 212 209 208 212 204 201 207 211 212 206 214 213 216
58 58 51 18 67 300 168 126 192 233 72 60 16 354 347 237 171 168 172 175 171 169 171 169 165 156 144 116 74 70 73 65 62 62 58 58 41 38 135 179 187 185 193 197 197 199 210 200 206 195 199 205 195 188 198 196 200 187 170 198 216 204 211 224 185 150 173 250 247 221 229 186 224 230 225 229 194 174 215 198 220 217 203 212 218
54 81 80 81 46 54 270 84 165 221 59 37 356 358 340 340 190 170 178 174 178 173 175 176 162 155 146 120 112 108 104 87 72 70 79 81 75 73 65 59 46 33 191 184 191 194 204 210 193 201 215 204 185 182 193 179 181 198 202 207 221 206 211 211 211 135 241 222 219 254 238 166 207 237 226 229 199 183 138 42 30 56 101 190 209
42 34 45 57 58 49 45 41 8 52 61 15 354 358 332 327 340 200 180 178 179 176 179 174 164 155 139 125 123 124 117 112 113 103 85 81 90 86 79 74 70 65 53 48 49 182 227 237 198 218 224 219 168 201 185 183 178 184 198 201 213 228 227 232 266 199 138 205 225 219 246 152 214 273 255 61 59 44 57 44 41 35 39 101 194
37 47 39 46 51 43 31 50 33 40 51 11 358 351 326 326 313 233 185 177 184 176 172 176 163 157 161 145 124 114 109 136 133 115 110 102 97 98 99 86 70 64 59 51 44 23 23 258 237 155 337 95 172 99 58 55 29 175 182 205 183 212 211 253 248 115 124 125 248 234 246 149 194 187 196 95 62 66 65 45 31 31 27 351 299
36 44 38 36 29 38 38 47 49 40 29 360 6 11 3 13 2 314 167 166 161 158 156 145 153 154 153 139 129 127 131 136 121 123 116 127 126 129 118 100 97 94 77 70 63 56 18 24 135 120 80 26 81 100 108 144 214 214 227 210 182 199 213 113 72 92 97 231 283 320 281 65 19 312 273 109 108 100 85 74 51 29 19 8 4
19 49 51 46 40 42 45 50 55 44 24 8 13 24 23 359 347 326 107 124 131 123 111 108 104 117 112 120 122 121 123 122 63 16 143 140 129 117 110 98 78 56 44 25 13 4 27 92 97 103 95 75 89 104 118 143 49 16 9 24 33 22 86 112 162 144 100 32 352 278 121 170 211 229 103 66 111 116 120 92 66 53 39 31 17
355 23 55 49 31 42 48 46 51 44 30 15 12 20 8 357 329 108 97 102 100 100 92 91 72 71 58 80 109 96 88 79 14 352 345 356 130 129 117 106 91 77 62 50 28 29 31 38 42 55 57 56 46 42 19 359 77 123 85 90 99 176 199 231 199 163 130 70 353 300 288 95 50 294 114 151 138 126 120 111 86 66 62 57 47
36 41 50 52 37 31 47 37 37 35 31 15 14 17 18 359 38 98 99 88 77 61 50 49 51 39 26 9 67 117 106 71 7 345 351 337 151 141 135 125 127 120 101 78 54 53 63 70 75 78 78 71 67 57 44 25 8 336 229 190 182 205 218 236 195 100 94 105 36 329 292 217 46 308 236 159 163 224 117 42 86 87 73 70 59
42 44 48 53 50 45 41 41 28 30 30 18 15 17 12 9 25 71 74 77 71 60 56 59 67 64 38 30 35 39 35 38 344 2 348 320 184 149 145 141 141 137 125 111 98 76 82 85 82 82 83 89 90 77 50 34 22 358 325 282 74 272 290 334 333 91 124 94 60 350 286 343 293 303 310 159 171 169 73 66 77 133 138 104 81
42 41 47 52 54 50 42 42 31 33 28 19 16 20 22 28 41 52 54 65 59 56 63 56 64 68 68 44 38 38 34 354 2 17 2 337 160 139 153 148 143 141 135 137 125 123 132 127 111 98 85 69 66 61 53 44 32 24 30 25 9 360 17 20 35 126 160 99 54 342 288 147 258 105 314 276 215 105 74 99 77 54 33 23 108